LXJ420 KSYR-KBDL

Flight info

Callsign LXJ420
Flight time 0h 32m
Altitude 23000
Route ALB STELA1
Aircraft C25C/M-SDE2E3FGHRWXY/LB1

Departure

Time 2026-04-29 00:54
Airport Syracuse Hancock International Airport (KSYR)

Arrival

Time 2026-04-29 01:26
Airport Bradley International Airport (KBDL)
Time Latitude Longitude Altitude Speed Heading
2026-04-29 00:34 43.10551 -76.11369 415 ft 0 kts 118°
2026-04-29 00:48 43.10571 -76.11356 410 ft 6 kts
2026-04-29 00:49 43.10615 -76.11321 412 ft 8 kts 33°
2026-04-29 00:49 43.10665 -76.11292 413 ft 7 kts 360°
2026-04-29 00:49 43.10712 -76.11299 414 ft 7 kts 337°
2026-04-29 00:49 43.10738 -76.11359 415 ft 10 kts 272°
2026-04-29 00:50 43.10735 -76.11477 414 ft 13 kts 267°
2026-04-29 00:50 43.10731 -76.11608 414 ft 14 kts 266°
2026-04-29 00:50 43.10727 -76.11737 415 ft 13 kts 267°
2026-04-29 00:50 43.10723 -76.11860 416 ft 13 kts 267°
2026-04-29 00:51 43.10717 -76.11980 417 ft 12 kts 266°
2026-04-29 00:51 43.10688 -76.12078 419 ft 10 kts 239°
2026-04-29 00:51 43.10677 -76.12170 420 ft 11 kts 269°
2026-04-29 00:51 43.10674 -76.12273 420 ft 11 kts 267°
2026-04-29 00:52 43.10670 -76.12380 414 ft 11 kts 266°
2026-04-29 00:52 43.10666 -76.12478 422 ft 10 kts 268°
2026-04-29 00:52 43.10691 -76.12541 417 ft 8 kts 344°
2026-04-29 00:52 43.10753 -76.12549 422 ft 10 kts 355°
2026-04-29 00:53 43.10817 -76.12530 422 ft 10 kts 52°
2026-04-29 00:53 43.10826 -76.12469 422 ft 7 kts 87°
2026-04-29 00:53 43.10838 -76.12081 414 ft 92 kts 87°
2026-04-29 00:53 43.10888 -76.10824 777 ft 155 kts 89°
2026-04-29 00:54 43.10993 -76.09260 1857 ft 177 kts 92°
2026-04-29 00:54 43.11106 -76.07463 2864 ft 206 kts 88°
2026-04-29 00:54 43.11284 -76.05339 3728 ft 244 kts 88°
2026-04-29 00:54 43.11425 -76.02833 4006 ft 280 kts 88°
2026-04-29 00:55 43.11559 -76.00220 4005 ft 276 kts 88°
2026-04-29 00:55 43.11700 -75.97631 4057 ft 266 kts 88°
2026-04-29 00:55 43.11837 -75.95087 4000 ft 269 kts 88°
2026-04-29 00:55 43.11978 -75.92525 3992 ft 270 kts 88°
2026-04-29 00:56 43.12070 -75.90824 3990 ft 270 kts 88°
2026-04-29 00:56 43.12215 -75.88288 4276 ft 259 kts 87°
2026-04-29 00:56 43.12347 -75.85820 4297 ft 261 kts 88°
2026-04-29 00:56 43.12470 -75.83328 5194 ft 259 kts 86°
2026-04-29 00:57 43.12368 -75.80867 6429 ft 263 kts 108°
2026-04-29 00:57 43.11663 -75.78532 7531 ft 268 kts 110°
2026-04-29 00:57 43.11324 -75.76006 8669 ft 273 kts 96°
2026-04-29 00:57 43.11057 -75.73387 9720 ft 283 kts 103°
2026-04-29 00:58 43.10528 -75.70766 10734 ft 288 kts 107°
2026-04-29 00:58 43.09998 -75.68080 11704 ft 296 kts 103°
2026-04-29 00:58 43.09550 -75.65297 12675 ft 303 kts 102°
2026-04-29 00:58 43.09036 -75.62452 13631 ft 312 kts 103°
2026-04-29 00:59 43.08492 -75.59549 14520 ft 318 kts 102°
2026-04-29 00:59 43.07976 -75.56579 15413 ft 324 kts 102°
2026-04-29 00:59 43.07432 -75.53559 16298 ft 330 kts 103°
2026-04-29 00:59 43.06874 -75.50530 17176 ft 336 kts 103°
2026-04-29 01:00 43.06316 -75.47393 18069 ft 341 kts 102°
2026-04-29 01:00 43.05741 -75.44211 18920 ft 347 kts 103°
2026-04-29 01:00 43.05150 -75.41001 19796 ft 349 kts 104°
2026-04-29 01:00 43.04569 -75.37761 20697 ft 352 kts 104°
2026-04-29 01:01 43.03975 -75.34496 21616 ft 356 kts 105°
2026-04-29 01:01 43.03368 -75.31198 22538 ft 360 kts 105°
2026-04-29 01:01 43.02758 -75.27828 23057 ft 377 kts 105°
2026-04-29 01:01 43.02105 -75.24288 23066 ft 388 kts 106°
2026-04-29 01:02 43.01445 -75.20682 23075 ft 395 kts 105°
2026-04-29 01:02 43.00777 -75.17000 23077 ft 401 kts 106°
2026-04-29 01:02 42.99889 -75.13376 23078 ft 403 kts 117°
2026-04-29 01:02 42.98568 -75.09992 23077 ft 407 kts 123°
2026-04-29 01:03 42.97142 -75.06620 23074 ft 413 kts 122°
2026-04-29 01:03 42.95887 -75.03103 23075 ft 420 kts 116°
2026-04-29 01:03 42.94735 -74.99360 23075 ft 423 kts 116°
2026-04-29 01:03 42.93482 -74.95790 23079 ft 424 kts 120°
2026-04-29 01:04 42.92115 -74.92205 23081 ft 425 kts 120°
2026-04-29 01:04 42.90855 -74.88550 23074 ft 427 kts 117°
2026-04-29 01:04 42.89630 -74.84852 23077 ft 427 kts 118°
2026-04-29 01:04 42.88312 -74.81200 23082 ft 427 kts 120°
2026-04-29 01:05 42.86987 -74.77571 23078 ft 428 kts 118°
2026-04-29 01:05 42.85730 -74.73897 23082 ft 427 kts 117°
2026-04-29 01:05 42.84460 -74.70236 23079 ft 426 kts 119°
2026-04-29 01:05 42.83146 -74.66625 23083 ft 425 kts 119°
2026-04-29 01:06 42.81858 -74.63003 23081 ft 424 kts 118°
2026-04-29 01:06 42.80598 -74.59378 23078 ft 423 kts 118°
2026-04-29 01:06 42.79315 -74.55789 23074 ft 421 kts 119°
2026-04-29 01:06 42.78025 -74.52204 23069 ft 421 kts 118°
2026-04-29 01:07 42.76764 -74.48619 23067 ft 420 kts 118°
2026-04-29 01:07 42.75490 -74.45040 23066 ft 419 kts 119°
2026-04-29 01:07 42.74205 -74.41475 23064 ft 419 kts 119°
2026-04-29 01:07 42.72938 -74.37915 23073 ft 418 kts 119°
2026-04-29 01:08 42.71671 -74.34365 23068 ft 417 kts 119°
2026-04-29 01:08 42.70394 -74.30821 23069 ft 417 kts 119°
2026-04-29 01:08 42.69124 -74.27273 23063 ft 417 kts 119°
2026-04-29 01:08 42.67856 -74.23731 23063 ft 417 kts 119°
2026-04-29 01:09 42.66577 -74.20197 23062 ft 417 kts 119°
2026-04-29 01:09 42.65305 -74.16663 23058 ft 417 kts 119°
2026-04-29 01:09 42.64052 -74.13168 23056 ft 416 kts 119°
2026-04-29 01:09 42.62771 -74.09642 23058 ft 416 kts 119°
2026-04-29 01:10 42.61496 -74.06117 23059 ft 416 kts 119°
2026-04-29 01:10 42.60225 -74.02586 23055 ft 416 kts 119°
2026-04-29 01:10 42.58958 -73.99102 22777 ft 415 kts 119°
2026-04-29 01:10 42.57697 -73.95638 22295 ft 403 kts 118°
2026-04-29 01:11 42.56479 -73.92260 21845 ft 392 kts 118°
2026-04-29 01:11 42.55283 -73.88986 21399 ft 383 kts 118°
2026-04-29 01:11 42.54106 -73.85769 20963 ft 376 kts 118°
2026-04-29 01:11 42.52963 -73.82616 20530 ft 370 kts 118°
2026-04-29 01:12 42.51671 -73.79639 20107 ft 363 kts 126°
2026-04-29 01:12 42.50200 -73.76892 19687 ft 358 kts 129°
2026-04-29 01:12 42.48782 -73.74135 19276 ft 355 kts 124°
2026-04-29 01:12 42.47521 -73.71269 18871 ft 353 kts 122°
2026-04-29 01:13 42.46232 -73.68448 18414 ft 352 kts 125°
2026-04-29 01:13 42.44860 -73.65708 17867 ft 352 kts 125°
2026-04-29 01:13 42.43533 -73.62922 17315 ft 352 kts 122°
2026-04-29 01:13 42.42244 -73.60102 16777 ft 351 kts 123°
2026-04-29 01:14 42.40912 -73.57334 16251 ft 351 kts 124°
2026-04-29 01:14 42.39575 -73.54580 15736 ft 350 kts 123°
2026-04-29 01:14 42.38278 -73.51803 15223 ft 348 kts 122°
2026-04-29 01:14 42.36978 -73.49063 14722 ft 345 kts 123°
2026-04-29 01:15 42.35681 -73.46388 14236 ft 344 kts 122°
2026-04-29 01:15 42.34390 -73.43670 13727 ft 342 kts 122°
2026-04-29 01:15 42.33120 -73.40982 13175 ft 337 kts 123°
2026-04-29 01:15 42.31843 -73.38347 12634 ft 333 kts 123°
2026-04-29 01:16 42.30593 -73.35737 12116 ft 328 kts 123°
2026-04-29 01:16 42.29378 -73.33170 11689 ft 321 kts 124°
2026-04-29 01:16 42.28168 -73.30672 11269 ft 314 kts 124°
2026-04-29 01:16 42.26993 -73.28230 10851 ft 307 kts 124°
2026-04-29 01:17 42.25854 -73.25828 10441 ft 301 kts 124°
2026-04-29 01:17 42.24720 -73.23487 10025 ft 294 kts 125°
2026-04-29 01:17 42.23619 -73.21210 9584 ft 285 kts 125°
2026-04-29 01:17 42.22569 -73.18996 9139 ft 276 kts 125°
2026-04-29 01:18 42.21527 -73.16860 8689 ft 269 kts 126°
2026-04-29 01:18 42.19521 -73.12677 7824 ft 263 kts 124°
2026-04-29 01:18 42.18526 -73.10634 7396 ft 260 kts 125°
2026-04-29 01:19 42.17537 -73.08600 6996 ft 257 kts 124°
2026-04-29 01:19 42.16572 -73.06585 6585 ft 255 kts 124°
2026-04-29 01:19 42.15602 -73.04597 6156 ft 253 kts 124°
2026-04-29 01:19 42.14641 -73.02617 5722 ft 251 kts 123°
2026-04-29 01:20 42.13703 -73.00645 5294 ft 249 kts 124°
2026-04-29 01:20 42.12756 -72.98717 5037 ft 241 kts 124°
2026-04-29 01:20 42.11869 -72.96882 4935 ft 229 kts 123°
2026-04-29 01:20 42.11011 -72.95115 4620 ft 228 kts 125°
2026-04-29 01:21 42.10143 -72.93334 4305 ft 227 kts 124°
2026-04-29 01:21 42.09285 -72.91557 3997 ft 226 kts 125°
2026-04-29 01:21 42.08421 -72.89790 3694 ft 225 kts 125°
2026-04-29 01:21 42.07577 -72.88045 3546 ft 218 kts 125°
2026-04-29 01:22 42.06717 -72.86419 3501 ft 207 kts 135°
2026-04-29 01:22 42.05707 -72.85104 3487 ft 197 kts 137°
2026-04-29 01:22 42.04763 -72.83782 3327 ft 198 kts 135°
2026-04-29 01:22 42.03791 -72.82430 3037 ft 203 kts 137°
2026-04-29 01:23 42.02794 -72.81070 2772 ft 206 kts 136°
2026-04-29 01:23 42.01795 -72.79689 2582 ft 204 kts 136°
2026-04-29 01:23 42.00821 -72.78354 2527 ft 195 kts 136°
2026-04-29 01:23 41.99906 -72.77100 2491 ft 181 kts 136°
2026-04-29 01:24 41.99102 -72.75984 2429 ft 150 kts 136°
2026-04-29 01:24 41.98435 -72.75022 2150 ft 135 kts 134°
2026-04-29 01:24 41.97790 -72.74089 1696 ft 137 kts 135°
2026-04-29 01:24 41.97123 -72.73174 1250 ft 135 kts 138°
2026-04-29 01:25 41.96502 -72.72369 1131 ft 100 kts 138°
2026-04-29 01:25 41.96041 -72.71763 890 ft 90 kts 135°
2026-04-29 01:25 41.95567 -72.71140 718 ft 100 kts 135°
2026-04-29 01:25 41.95091 -72.70479 534 ft 95 kts 134°
2026-04-29 01:26 41.94636 -72.69854 329 ft 91 kts 134°
2026-04-29 01:26 41.94193 -72.69256 233 ft 92 kts 134°
2026-04-29 01:26 41.93773 -72.68685 187 ft 74 kts 135°
2026-04-29 01:26 41.93472 -72.68274 183 ft 35 kts 133°
2026-04-29 01:27 41.93363 -72.68275 194 ft 12 kts 244°
2026-04-29 01:27 41.93398 -72.68380 196 ft 22 kts 315°
2026-04-29 01:27 41.93532 -72.68563 198 ft 28 kts 314°
2026-04-29 01:27 41.93660 -72.68742 199 ft 26 kts 315°
2026-04-29 01:28 41.93787 -72.68929 196 ft 27 kts 305°
2026-04-29 01:28 41.93853 -72.69093 196 ft 18 kts 239°
2026-04-29 01:28 41.93768 -72.69209 197 ft 17 kts 224°
2026-04-29 01:28 41.93733 -72.69324 197 ft 14 kts 305°
2026-04-29 01:29 41.93796 -72.69370 198 ft 9 kts 297°
2026-04-29 01:29 41.93794 -72.69405 198 ft 0 kts 239°